User: anonymous   Login
Location: Ballard
(38.3614°N, 94.1431°W)
Time: 16:54:41
(UTC-05:00)
Language:

Hubble Space Telescope - Orbit

View from above orbital plane
View from above orbital plane
View from above satellite
View from above satellite

Ground track
Ground track

The orbit data is extracted from the following two-line orbital elements,

1 20580U 90037B   19115.38888203  .00000464  00000-0  17326-4 0  9998
2 20580  28.4687 211.0092 0002457 260.7541 161.7324 15.09212595392670
Epoch (UTC): 25 April 2019 09:19:59
Eccentricity: 0.0002457
inclination: 28.4687°
perigee height: 537 km
apogee height: 540 km
right ascension of ascending node: 211.0092°
argument of perigee: 260.7541°
revolutions per day: 15.09212595
mean anomaly at epoch: 161.7324°
orbit number at epoch: 39267

The dashed part of the orbit path shows where the satellite is in the earth's shadow,  

DLR